"TOA5","MOW","CPU:UNC_MeetingWaters","DataHourly"
"TIMESTAMP","SondeTempC","SpCond","DOSat","DOmg","pH","Turb","BattVolt_Min"
"TS","","","","","","",""
"","Smp","Smp","Smp","Smp","Smp","Smp","Min"
"2009-06-01 04:00:00",19.9699993134,0.0010000000475,99.6999969482,-33.2000007629,7.65999984741,-7.0,12.8100004196
"2009-06-01 05:00:00",19.5200004578,0.0010000000475,89.8000030518,-34.5999984741,7.69000005722,2.20000004768,12.7899999619
"2009-06-01 06:00:00",18.8299999237,0.0,100.400001526,-33.0,7.65999984741,-3.09999990463,12.7399997711
"2009-06-01 07:00:00",18.3899993896,0.0,99.3000030518,-30.7000007629,7.61999988556,-6.09999990463,12.7299995422
"2009-06-01 08:00:00",18.0400009155,0.0,96.4000015259,-32.5,7.65000009537,4.09999990463,12.720000267
"2009-06-01 09:00:00",17.7999992371,0.0,100.599998474,-34.2999992371,7.69000005722,-5.0,12.6899995804
"2009-06-01 10:00:00",17.6599998474,0.0,100.599998474,-34.2000007629,7.69000005722,-3.59999990463,12.6999998093
"2009-06-01 11:00:00",18.1499996185,0.0,100.099998474,-35.9000015259,7.71000003815,-4.30000019073,12.7399997711
"2009-06-01 12:00:00",18.9300003052,0.0,99.0999984741,-29.2999992371,7.59999990463,-4.0,12.9899997711
"2009-06-01 13:00:00",19.6000003815,0.0,98.4000015259,-20.1000003815,7.42999982834,-5.80000019073,13.3800001144
"2009-06-01 14:00:00",21.2199993134,0.0,97.5999984741,-2.20000004768,7.11999988556,-4.5,13.5900001526
"2009-06-01 15:00:00",23.8700008392,0.0,93.0999984741,-1.10000002384,7.09999990463,-1.29999995232,13.8699998856
"2009-06-01 16:00:00",24.7800006866,0.0,95.6999969482,9.19999980927,6.92000007629,-7.5,13.1000003815
"2009-06-01 17:00:00",25.3199996948,0.0,96.8000030518,2.59999990463,7.03999996185,-7.19999980927,13.0799999237
"2009-06-01 18:00:00",24.8299999237,0.0,96.3000030518,6.5,6.96999979019,-6.80000019073,13.029999733
"2009-06-01 19:00:00",24.5200004578,0.0,96.5999984741,15.6999998093,6.80999994278,-6.69999980927,13.0100002289
"2009-06-01 20:00:00",24.1000003815,0.0,97.3000030518,4.40000009537,7.01000022888,37.5999984741,13.0200004578
"2009-06-01 21:00:00",23.7700004578,0.0,97.6999969482,-1.29999995232,7.09999990463,-7.09999990463,13.0699996948
"2009-06-01 22:00:00",23.2600002289,0.0,98.3000030518,-9.0,7.23999977112,-7.30000019073,13.1899995804
"2009-06-01 23:00:00",22.0699996948,0.0,99.0,-12.3000001907,7.30000019073,-7.0,12.970000267
"2009-06-02 00:00:00",21.3899993896,0.0,99.3000030518,-18.5,7.40000009537,-5.69999980927,12.9099998474
"2009-06-02 01:00:00",20.9099998474,0.0,83.9000015259,-19.7999992371,7.42999982834,6.90000009537,12.8999996185
"2009-06-02 02:00:00",20.4599990845,0.0,99.1999969482,-24.6000003815,7.51000022888,-6.80000019073,12.8800001144
"2009-06-02 03:00:00",20.0799999237,0.0,99.5,-27.5,7.55999994278,-6.5,12.8599996567
"2009-06-02 04:00:00",20.0499992371,0.0,99.8000030518,-29.1000003815,7.59000015259,-6.90000009537,12.8400001526
"2009-06-02 05:00:00",19.8700008392,0.0010000000475,99.5999984741,-31.2999992371,7.63000011444,-7.09999990463,12.8100004196
"2009-06-02 06:00:00",19.6499996185,0.0010000000475,99.6999969482,-32.7999992371,7.65999984741,-7.09999990463,12.7899999619
"2009-06-02 07:00:00",19.3299999237,0.0010000000475,99.6999969482,-34.9000015259,7.69000005722,-7.0,12.7700004578
"2009-06-02 08:00:00",19.0300006866,0.0010000000475,100.0,-34.7999992371,7.69000005722,-6.30000019073,12.7399997711
"2009-06-02 09:00:00",18.7000007629,0.0010000000475,100.300003052,-34.9000015259,7.69000005722,-0.600000023842,12.720000267
"2009-06-02 10:00:00",18.5699996948,0.0010000000475,99.6999969482,-40.0999984741,7.78999996185,-5.80000019073,12.6999998093
"2009-06-02 11:00:00",18.9899997711,0.0010000000475,99.5999984741,-42.7000007629,7.82999992371,-6.90000009537,12.7399997711
"2009-06-02 12:00:00",19.9200000763,0.0010000000475,99.1999969482,-41.9000015259,7.80999994278,-6.59999990463,12.8800001144
"2009-06-02 13:00:00",21.0599994659,0.0010000000475,98.4000015259,-34.7999992371,7.69000005722,-6.30000019073,13.1800003052
"2009-06-02 14:00:00",23.0200004578,0.0,96.9000015259,-25.3999996185,7.51999998093,-7.30000019073,13.470000267
"2009-06-02 15:00:00",26.1499996185,0.0,94.6999969482,-10.1000003815,7.25,13.0,13.0799999237
"2009-06-02 16:00:00",28.0900001526,0.0,94.6999969482,14.1000003815,6.84000015259,-7.59999990463,13.0200004578
"2009-06-02 17:00:00",27.1700000763,0.0,95.1999969482,46.2000007629,6.28999996185,-7.69999980927,13.0
"2009-06-02 18:00:00",26.1399993896,0.0,95.0999984741,15.3999996185,6.82000017166,-7.5,12.970000267
"2009-06-02 19:00:00",25.9500007629,0.0,95.0,40.5,6.38999986649,-7.30000019073,12.9399995804
"2009-06-02 20:00:00",25.5100002289,0.0,96.5999984741,16.2000007629,6.80000019073,-6.90000009537,12.9499998093
"2009-06-02 21:00:00",24.9599990845,0.0,96.5999984741,-0.40000000596,7.09000015259,-6.09999990463,13.0100002289
"2009-06-02 22:00:00",24.4300003052,0.0,97.0999984741,-6.40000009537,7.19000005722,-7.40000009537,13.1999998093
"2009-06-02 23:00:00",23.3999996185,0.0,97.5,-7.40000009537,7.21000003815,-7.40000009537,12.9899997711
"2009-06-03 00:00:00",22.4200000763,0.0,98.5999984741,-15.3000001907,7.34999990463,-7.40000009537,12.8900003433
"2009-06-03 01:00:00",21.7099990845,0.0,99.0999984741,-18.8999996185,7.40999984741,-7.30000019073,12.8500003815
"2009-06-03 02:00:00",21.1000003815,0.0,98.6999969482,-23.1000003815,7.48000001907,-7.19999980927,12.8100004196
"2009-06-03 03:00:00",20.7299995422,0.0,99.6999969482,-22.7999992371,7.48000001907,-5.69999980927,12.7899999619
"2009-06-03 04:00:00",20.5599994659,0.0,99.1999969482,-27.2000007629,7.55999994278,-7.0,12.7600002289
"2009-06-03 05:00:00",20.4799995422,0.0,99.0999984741,-29.1000003815,7.59000015259,-7.09999990463,12.75
"2009-06-03 06:00:00",20.2999992371,0.0,98.9000015259,-31.0,7.61999988556,-6.80000019073,12.7299995422
"2009-06-03 07:00:00",20.0799999237,0.0,99.1999969482,-31.6000003815,7.63000011444,-6.59999990463,12.7299995422
"2009-06-03 08:00:00",19.8099994659,0.0,99.3000030518,-35.0,7.69000005722,-5.19999980927,12.6999998093
"2009-06-03 09:00:00",19.4899997711,0.0,99.1999969482,-36.5,7.71999979019,-7.09999990463,12.7100000381
"2009-06-03 10:00:00",19.5400009155,0.0010000000475,100.300003052,-38.5999984741,7.76000022888,493.600006104,12.7100000381
"2009-06-03 11:00:00",20.1200008392,0.0010000000475,99.0,-38.2999992371,7.75,-6.59999990463,12.779999733
"2009-06-03 12:00:00",21.0100002289,0.0010000000475,98.4000015259,-35.7000007629,7.69999980927,-3.29999995232,13.0200004578
"2009-06-03 13:00:00",22.2999992371,0.0,97.5999984741,-29.3999996185,7.59000015259,-7.30000019073,13.2600002289
"2009-06-03 14:00:00",23.7700004578,0.0,96.5,-18.8999996185,7.40999984741,-7.40000009537,13.5
"2009-06-03 15:00:00",26.3099994659,0.0,94.5,4.0,7.01000022888,-7.59999990463,13.0699996948
"2009-06-03 16:00:00",27.1599998474,0.0,94.9000015259,17.3999996185,6.78000020981,-7.59999990463,13.0100002289
"2009-06-03 17:00:00",26.9500007629,0.0,96.0999984741,27.1000003815,6.61999988556,-7.59999990463,13.0
"2009-06-03 18:00:00",26.8500003815,0.0,95.9000015259,40.2000007629,6.40000009537,-7.59999990463,12.9799995422
"2009-06-03 19:00:00",26.5599994659,0.0,95.0,38.7999992371,6.42000007629,-7.59999990463,12.9399995804
"2009-06-03 20:00:00",25.6800003052,0.0,95.3000030518,34.9000015259,6.48000001907,-7.59999990463,12.9600000381
"2009-06-03 21:00:00",24.6499996185,0.0,97.1999969482,5.69999980927,6.98000001907,-7.40000009537,13.0100002289
"2009-06-03 22:00:00",23.6800003052,0.0,97.5,4.30000019073,7.01000022888,-7.40000009537,12.8999996185
"2009-06-03 23:00:00",22.8700008392,0.0,96.9000015259,1.89999997616,7.05000019073,-7.30000019073,12.8500003815
"2009-06-04 00:00:00",22.4200000763,0.0,98.3000030518,-1.39999997616,7.11000013351,-7.19999980927,12.8199996948
"2009-06-04 01:00:00",21.6000003815,0.0,98.0,-13.1999998093,7.30999994278,-7.19999980927,12.7899999619
"2009-06-04 02:00:00",20.8799991608,0.0,98.8000030518,-18.5,7.40000009537,-6.59999990463,12.7600002289
"2009-06-04 03:00:00",20.6800003052,0.0,98.8000030518,-22.1000003815,7.46999979019,-7.19999980927,12.7299995422
"2009-06-04 04:00:00",20.3400001526,0.0,98.4000015259,-24.8999996185,7.51999998093,-7.09999990463,12.7100000381
"2009-06-04 05:00:00",20.2099990845,0.0,98.3000030518,-27.2000007629,7.55999994278,-7.09999990463,12.7100000381
"2009-06-04 06:00:00",19.9699993134,0.0,98.9000015259,-29.3999996185,7.59999990463,-7.0,12.7100000381
"2009-06-04 07:00:00",19.8999996185,0.0,99.1999969482,-31.2000007629,7.63000011444,-7.09999990463,12.7100000381
"2009-06-04 08:00:00",19.8799991608,0.0,98.9000015259,-34.9000015259,7.69000005722,-7.19999980927,12.6999998093
"2009-06-04 09:00:00",19.4300003052,0.0,99.0999984741,-35.2999992371,7.69999980927,-7.0,12.6999998093
"2009-06-04 10:00:00",19.3999996185,0.0010000000475,99.4000015259,-37.9000015259,7.75,-3.59999990463,12.6999998093
"2009-06-04 11:00:00",19.9500007629,0.0010000000475,98.8000030518,-39.5,7.76999998093,-6.90000009537,12.75
"2009-06-04 12:00:00",20.9599990845,0.0010000000475,98.1999969482,-36.7999992371,7.71999979019,-7.19999980927,13.029999733
"2009-06-04 13:00:00",21.9200000763,0.0,97.4000015259,-31.2999992371,7.61999988556,-7.19999980927,13.4399995804
"2009-06-04 14:00:00",22.8600006104,0.0,96.9000015259,-28.6000003815,7.57999992371,-7.30000019073,13.75
"2009-06-04 15:00:00",23.9099998474,0.0,96.0,-19.7000007629,7.42000007629,-7.40000009537,13.9200000763
"2009-06-04 16:00:00",25.2900009155,0.0,94.5,-12.6000003815,7.30000019073,-7.40000009537,13.8699998856
"2009-06-04 17:00:00",25.9099998474,0.0,93.5999984741,8.19999980927,6.94000005722,-7.0,13.0799999237
"2009-06-04 18:00:00",24.1499996185,0.0,96.6999969482,-0.899999976158,7.09999990463,-6.59999990463,13.0699996948
"2009-06-04 19:00:00",22.1299991608,0.338999986649,89.9000015259,-40.9000015259,7.78999996185,133.0,13.0500001907
"2009-06-04 20:00:00",23.4099998474,0.116999998689,90.5,-64.6999969482,8.19999980927,1281.0,13.0799999237
"2009-06-04 21:00:00",22.5599994659,0.0719999969006,96.0999984741,-73.6999969482,8.35999965668,797.400024414,12.9899997711
"2009-06-04 22:00:00",22.2199993134,0.0869999974966,91.1999969482,-26.2999992371,7.53999996185,562.5,13.0
"2009-06-04 23:00:00",21.9300003052,0.0750000029802,88.8000030518,-21.3999996185,7.44999980927,430.600006104,12.9300003052
"2009-06-05 00:00:00",21.6399993896,0.171000003815,89.9000015259,-27.0,7.55000019073,368.299987793,12.8999996185
"2009-06-05 01:00:00",21.5699996948,0.145999997854,90.8000030518,-25.7999992371,7.53000020981,162.300003052,12.8999996185
"2009-06-05 02:00:00",21.6299991608,0.11400000006,93.9000015259,-26.0,7.53000020981,151.800003052,12.8900003433
"2009-06-05 03:00:00",21.6700000763,0.0649999976158,95.9000015259,-10.6999998093,7.26999998093,187.5,12.8800001144
"2009-06-05 04:00:00",21.0100002289,0.0630000010133,98.3000030518,-23.2999992371,7.48999977112,434.600006104,12.8599996567
"2009-06-05 05:00:00",21.1399993896,0.123000003397,94.8000030518,-25.8999996185,7.53000020981,233.600006104,12.8400001526
"2009-06-05 06:00:00",21.2099990845,0.0860000029206,96.8000030518,-26.2999992371,7.53999996185,293.799987793,12.8299999237
"2009-06-05 07:00:00",21.1000003815,0.0680000036955,97.1999969482,-28.2999992371,7.57999992371,1422.0,12.8299999237
"2009-06-05 08:00:00",21.1000003815,0.0680000036955,97.1999969482,-28.2999992371,7.57999992371,1422.0,12.8000001907
"2009-06-05 09:00:00",21.2700004578,0.189999997616,93.4000015259,-29.5,7.59000015259,128.100006104,12.7899999619
"2009-06-05 10:00:00",21.3199996948,0.21099999547,93.3000030518,-32.4000015259,7.65000009537,79.0,12.7899999619
"2009-06-05 11:00:00",21.2700004578,0.199000000954,91.5999984741,-29.5,7.59000015259,78.6999969482,12.779999733
"2009-06-05 12:00:00",21.2199993134,0.217999994755,92.3000030518,-31.6000003815,7.63000011444,52.0,12.8800001144
"2009-06-05 13:00:00",21.2299995422,0.25,93.5999984741,-35.5999984741,7.69999980927,48.2000007629,13.1599998474
"2009-06-05 14:00:00",21.2600002289,0.244000002742,92.9000015259,-36.5999984741,7.71999979019,315.5,13.220000267
"2009-06-05 15:00:00",21.5100002289,0.226999998093,93.0,-35.2000007629,7.69000005722,349.200012207,13.5900001526
"2009-06-05 16:00:00",21.7299995422,0.194999992847,90.5,-32.2000007629,7.63999986649,251.699996948,13.2299995422
"2009-06-05 17:00:00",21.7399997711,0.202000007033,91.9000015259,-32.5999984741,7.65000009537,215.699996948,13.1099996567
"2009-06-05 18:00:00",21.9699993134,0.0610000006855,96.6999969482,-26.8999996185,7.55000019073,426.600006104,13.0500001907
"2009-06-05 19:00:00",21.7399997711,0.097999997437,94.4000015259,-23.2999992371,7.48999977112,1429.0,13.529999733
"2009-06-05 20:00:00",21.6100006104,0.170000001788,91.8000030518,-28.3999996185,7.57000017166,294.299987793,13.8500003815
"2009-06-05 21:00:00",21.4200000763,0.209999993443,91.9000015259,-32.4000015259,7.63999986649,174.199996948,13.529999733
"2009-06-05 22:00:00",21.2299995422,0.230000004172,92.1999969482,-35.0,7.69000005722,102.0,13.0799999237
"2009-06-05 23:00:00",21.0400009155,0.157000005245,91.6999969482,-36.5999984741,7.71999979019,75.6999969482,12.9399995804
"2009-06-06 00:00:00",20.8400001526,0.144999995828,91.5,-38.0,7.73999977112,129.5,12.9200000763
"2009-06-06 01:00:00",20.6700000763,0.146999999881,91.5,-38.2000007629,7.75,96.9000015259,12.8999996185
"2009-06-06 02:00:00",20.5100002289,0.0689999982715,91.0999984741,-38.0999984741,7.75,44.2999992371,12.8699998856
"2009-06-06 03:00:00",20.3400001526,0.0230000000447,91.8000030518,-38.5,7.75,30.0,12.8800001144
"2009-06-06 04:00:00",20.1499996185,0.0140000004321,91.6999969482,-39.5,7.76999998093,24.7000007629,12.8599996567
"2009-06-06 05:00:00",19.9300003052,0.00800000037998,90.5,-37.0,7.73000001907,23.7999992371,12.8400001526
"2009-06-06 06:00:00",19.8199996948,0.00800000037998,92.9000015259,-40.0,7.78000020981,27.2000007629,12.8199996948
"2009-06-06 07:00:00",19.5799999237,0.00700000021607,93.1999969482,-54.0,8.02999973297,25.8999996185,12.7899999619
"2009-06-06 08:00:00",18.9799995422,0.00700000021607,93.5999984741,-48.0999984741,7.92000007629,20.2000007629,12.7399997711
"2009-06-06 09:00:00",18.8799991608,0.00700000021607,93.6999969482,-33.2999992371,7.67000007629,18.0,12.75
"2009-06-06 10:00:00",18.4799995422,0.00700000021607,94.1999969482,-34.2000007629,7.67999982834,15.6000003815,12.7399997711
"2009-06-06 11:00:00",18.5100002289,0.00700000021607,94.5999984741,-34.9000015259,7.69000005722,12.3999996185,12.8400001526
"2009-06-06 12:00:00",18.7900009155,0.00700000021607,95.4000015259,-33.7000007629,7.67000007629,12.6000003815,13.4099998474
"2009-06-06 13:00:00",19.1399993896,0.00700000021607,95.5,-31.5,7.63000011444,12.1999998093,13.5200004578
"2009-06-06 14:00:00",19.7900009155,0.00700000021607,96.3000030518,-29.3999996185,7.59999990463,11.1999998093,14.0699996948
"2009-06-06 15:00:00",20.3899993896,0.00600000005215,98.0,-27.2000007629,7.55999994278,127.300003052,14.0500001907
"2009-06-06 16:00:00",20.3799991608,0.00499999988824,94.5999984741,-22.5,7.46999979019,623.400024414,13.3000001907
"2009-06-06 17:00:00",20.6499996185,0.00400000018999,93.0999984741,-16.3999996185,7.36999988556,890.0,13.279999733
"2009-06-06 18:00:00",20.6000003815,0.00400000018999,94.1999969482,-20.1000003815,7.42999982834,515.099975586,13.2700004578
"2009-06-06 19:00:00",20.8099994659,0.00300000002608,94.6999969482,-23.2999992371,7.48999977112,554.0,13.279999733
"2009-06-06 20:00:00",20.8999996185,0.00300000002608,94.5999984741,-44.9000015259,7.86000013351,607.099975586,13.3000001907
"2009-06-06 21:00:00",20.8600006104,0.00300000002608,91.6999969482,-41.4000015259,7.80000019073,1420.0,13.1800003052
"2009-06-06 22:00:00",20.8600006104,0.00300000002608,91.6999969482,-41.4000015259,7.80000019073,1420.0,13.4099998474
"2009-06-06 23:00:00",20.3299999237,0.00300000002608,93.6999969482,-43.5999984741,7.84000015259,209.5,13.029999733
"2009-06-07 00:00:00",19.3299999237,0.00300000002608,94.1999969482,-45.0999984741,7.86999988556,131.300003052,12.9499998093
"2009-06-07 01:00:00",18.7199993134,0.00300000002608,94.4000015259,-48.0,7.92000007629,71.0999984741,12.9300003052
"2009-06-07 02:00:00",18.0900001526,0.00300000002608,95.0999984741,-50.0999984741,7.96000003815,52.2999992371,12.9099998474
"2009-06-07 03:00:00",17.9200000763,0.00300000002608,96.0,-53.7000007629,8.02999973297,47.7000007629,12.8800001144
"2009-06-07 04:00:00",17.4699993134,0.00300000002608,95.4000015259,-52.2999992371,8.0,30.6000003815,12.8599996567
"2009-06-07 05:00:00",17.0699996948,0.00300000002608,91.0999984741,-53.2999992371,8.02000045776,22.6000003815,12.8400001526
"2009-06-07 06:00:00",16.8600006104,0.00300000002608,93.5,-51.2999992371,7.98999977112,16.7999992371,12.8199996948
"2009-06-07 07:00:00",16.6399993896,0.00300000002608,94.5,-54.5999984741,8.05000019073,16.7000007629,12.779999733
"2009-06-07 08:00:00",16.4099998474,0.00300000002608,94.3000030518,-56.5999984741,8.07999992371,14.0,12.7399997711
"2009-06-07 09:00:00",16.3700008392,0.00300000002608,95.3000030518,-48.2999992371,7.94000005722,1372.0,12.7100000381
"2009-06-07 10:00:00",16.3700008392,0.00300000002608,95.3000030518,-48.2999992371,7.94000005722,1372.0,12.7299995422
"2009-06-07 11:00:00",17.6800003052,0.00300000002608,93.5999984741,-64.0,8.21000003815,11.8999996185,12.779999733
"2009-06-07 12:00:00",18.7600002289,0.00300000002608,94.4000015259,-59.7000007629,8.13000011444,-3.79999995232,13.220000267
"2009-06-07 13:00:00",19.6399993896,0.00300000002608,98.6999969482,-50.5999984741,7.96999979019,-6.0,13.6000003815
"2009-06-07 14:00:00",20.6499996185,0.00200000009499,100.400001526,-49.0,7.94000005722,47.7999992371,14.0600004196
"2009-06-07 15:00:00",22.9099998474,0.0010000000475,97.0,-41.0999984741,7.78999996185,-6.80000019073,13.1599998474
"2009-06-07 16:00:00",24.0799999237,0.0,95.3000030518,-35.2000007629,7.69000005722,-6.80000019073,13.1300001144
"2009-06-07 17:00:00",24.0100002289,0.0,100.400001526,-33.0,7.65000009537,5.59999990463,13.1199998856
"2009-06-07 18:00:00",23.3400001526,0.0,97.1999969482,-31.7000007629,7.63000011444,20.1000003815,13.0699996948
"2009-06-07 19:00:00",22.9699993134,0.0,97.1999969482,-33.7000007629,7.65999984741,-5.80000019073,13.0699996948
"2009-06-07 20:00:00",22.6499996185,0.0,97.5999984741,-35.2000007629,7.69000005722,-6.09999990463,13.0699996948
"2009-06-07 21:00:00",22.3999996185,0.0,98.0,-38.7000007629,7.75,-6.90000009537,13.220000267
"2009-06-07 22:00:00",22.1399993896,0.0,98.0999984741,-39.9000015259,7.76999998093,-6.69999980927,13.1599998474
"2009-06-07 23:00:00",21.3799991608,0.0,98.6999969482,-39.9000015259,7.76999998093,-2.5,12.9799995422
"2009-06-08 00:00:00",20.8299999237,0.0010000000475,99.0999984741,-43.5999984741,7.84000015259,-3.0,12.9399995804
"2009-06-08 01:00:00",20.4300003052,0.0010000000475,99.5,-45.0999984741,7.86999988556,-6.90000009537,12.9200000763
"2009-06-08 02:00:00",20.0499992371,0.0010000000475,99.3000030518,-46.4000015259,7.88999986649,-6.80000019073,12.8999996185
"2009-06-08 03:00:00",19.7800006866,0.0010000000475,98.3000030518,-47.9000015259,7.92000007629,22.6000003815,12.8800001144
"2009-06-08 04:00:00",19.4300003052,0.0010000000475,88.5999984741,-48.4000015259,7.92999982834,13.1000003815,12.8500003815
"2009-06-08 05:00:00",19.0699996948,0.0010000000475,99.8000030518,-47.5,7.90999984741,-6.80000019073,12.8100004196
"2009-06-08 06:00:00",18.9300003052,0.0010000000475,99.9000015259,-49.0,7.94000005722,-6.69999980927,12.7899999619
"2009-06-08 07:00:00",18.5900001526,0.0010000000475,99.6999969482,-50.7000007629,7.96999979019,-6.69999980927,12.7600002289
"2009-06-08 08:00:00",18.2299995422,0.0010000000475,99.8000030518,-50.7000007629,7.96999979019,-5.69999980927,12.720000267
"2009-06-08 09:00:00",18.1800003052,0.0010000000475,94.0,-48.0,7.92999982834,8.19999980927,12.7299995422
"2009-06-08 10:00:00",18.1100006104,0.0010000000475,92.8000030518,-49.5,7.94999980927,6.69999980927,12.7299995422
"2009-06-08 11:00:00",19.0400009155,0.0010000000475,95.0999984741,-53.7999992371,8.02000045776,8.10000038147,12.7600002289
"2009-06-08 12:00:00",20.0400009155,0.0010000000475,98.5999984741,-52.0999984741,7.98999977112,-6.90000009537,13.2299995422
"2009-06-08 13:00:00",20.9500007629,0.0010000000475,97.9000015259,-50.4000015259,7.96000003815,-6.80000019073,13.3400001526
"2009-06-08 14:00:00",22.2199993134,0.0010000000475,97.4000015259,-50.5,7.96000003815,-6.69999980927,13.6400003433
"2009-06-08 15:00:00",25.0400009155,0.0,97.6999969482,-43.2999992371,7.82000017166,4.30000019073,13.0799999237
"2009-06-08 16:00:00",25.9400005341,0.0,95.3000030518,-39.2999992371,7.75,-7.30000019073,13.029999733
"2009-06-08 17:00:00",26.2199993134,0.0,95.0999984741,-35.5,7.69000005722,-7.40000009537,13.029999733
"2009-06-08 18:00:00",25.1700000763,0.0,95.5999984741,-36.0999984741,7.69999980927,-7.30000019073,12.9899997711
"2009-06-08 19:00:00",25.2299995422,0.0,96.3000030518,-36.7999992371,7.71000003815,-7.30000019073,12.970000267
"2009-06-08 20:00:00",24.8199996948,0.0,96.9000015259,-37.4000015259,7.71999979019,-7.40000009537,13.0100002289
"2009-06-08 21:00:00",24.2099990845,0.0,97.1999969482,-39.2000007629,7.76000022888,-6.40000009537,13.1199998856
"2009-06-08 22:00:00",23.3099994659,0.0,97.9000015259,-40.0999984741,7.76999998093,-7.0,13.0500001907
"2009-06-08 23:00:00",22.5,0.0,98.0999984741,-41.5999984741,7.80000019073,-6.19999980927,12.9600000381
"2009-06-09 00:00:00",21.9099998474,0.0,98.5,-44.2999992371,7.84999990463,-5.69999980927,12.8999996185
"2009-06-09 01:00:00",21.5300006866,0.0010000000475,98.8000030518,-45.5,7.86999988556,-7.09999990463,12.8800001144
"2009-06-09 02:00:00",21.1700000763,0.0010000000475,98.9000015259,-46.9000015259,7.90000009537,-7.0,12.8599996567
"2009-06-09 03:00:00",20.9799995422,0.0010000000475,98.5,-48.5,7.92999982834,-4.19999980927,12.8100004196
"2009-06-09 04:00:00",20.8400001526,0.0010000000475,99.0,-48.9000015259,7.92999982834,-6.30000019073,12.8100004196
"2009-06-09 05:00:00",20.6299991608,0.0010000000475,98.9000015259,-49.0,7.94000005722,-6.30000019073,12.779999733
"2009-06-09 06:00:00",20.4799995422,0.0010000000475,98.9000015259,-49.2999992371,7.94000005722,4.90000009537,12.75
"2009-06-09 07:00:00",20.3199996948,0.0010000000475,98.8000030518,-49.9000015259,7.94999980927,8.19999980927,12.7299995422
"2009-06-09 08:00:00",20.0599994659,0.0010000000475,99.0,-50.0,7.94999980927,-4.5,12.7100000381
"2009-06-09 09:00:00",19.8500003815,0.0010000000475,99.5,-51.7000007629,7.98000001907,0.300000011921,12.7299995422
"2009-06-09 10:00:00",19.7900009155,0.0010000000475,99.0,-51.2999992371,7.98000001907,-6.90000009537,12.7299995422
"2009-06-09 11:00:00",20.2099990845,0.0010000000475,84.5999984741,-52.5999984741,8.0,1413.0,12.7600002289
"2009-06-09 12:00:00",21.0900001526,0.0010000000475,98.0999984741,-52.5999984741,8.0,7.90000009537,12.9099998474
"2009-06-09 13:00:00",22.2900009155,0.0010000000475,96.9000015259,-51.7000007629,7.98000001907,6.19999980927,13.2899999619
"2009-06-09 14:00:00",23.6399993896,0.0010000000475,97.0999984741,-53.4000015259,8.0,-7.19999980927,13.5600004196
"2009-06-09 15:00:00",26.75,0.0,94.5,-43.5,7.82000017166,-7.5,13.1199998856
"2009-06-09 16:00:00",26.4200000763,0.0,95.6999969482,-41.4000015259,7.78999996185,-7.5,13.029999733
"2009-06-09 17:00:00",26.4799995422,0.0,93.5999984741,-37.4000015259,7.71999979019,4.40000009537,13.0200004578
"2009-06-09 18:00:00",26.1200008392,0.0,94.5999984741,-37.7000007629,7.71999979019,-7.19999980927,13.0100002289
"2009-06-09 19:00:00",25.9500007629,0.0,94.5,-37.4000015259,7.71999979019,-7.40000009537,12.9600000381
"2009-06-09 20:00:00",25.4699993134,0.0,95.5999984741,-38.0,7.73000001907,-7.19999980927,12.9799995422
"2009-06-09 21:00:00",24.5300006866,0.0,96.6999969482,-38.9000015259,7.75,-7.19999980927,13.0399999619
"2009-06-09 22:00:00",23.7800006866,0.0,97.5,-40.7999992371,7.78000020981,-7.30000019073,13.1300001144